Wind_Speed
7 9 9 10 11 10 8 8 8 7 7 7 7 6 6 7 8 10 11 12 12 13 14 13 13 12 14 14 9 9 9 3 5 11 10 7 10 12 13 13 11 11 10 10 10 7 5 5 7 7 3 2 4 2 2 3 2 3 3 2 2 3 3 5 7 6 4 2 1 2 3 4 2 2 1 0 2 2 0 2 3 2 0 2 0 3 11 18
7 8 10 11 11 10 8 8 8 7 7 7 8 7 7 7 8 10 10 11 12 13 14 14 13 13 14 13 8 8 7 3 8 13 11 9 11 12 13 12 10 11 11 9 10 8 5 5 6 6 5 2 2 2 1 2 2 3 3 2 4 5 5 5 7 6 3 1 2 2 2 4 4 2 1 2 2 4 1 4 3 4 3 2 4 9 16 20
7 8 10 11 11 10 8 8 8 7 7 7 8 7 7 7 8 9 10 11 11 12 14 13 13 13 14 11 7 7 5 4 6 7 10 11 11 13 14 12 9 11 10 8 8 7 3 2 2 3 4 2 1 2 2 2 1 2 3 1 5 5 4 4 5 6 5 2 2 2 1 3 4 1 1 3 2 2 3 5 1 4 9 5 5 11 16 18
8 9 11 11 11 11 9 8 7 6 7 7 7 7 7 7 8 8 9 10 11 12 12 12 12 13 13 9 6 6 4 6 4 5 10 12 12 13 14 12 9 10 9 7 7 6 3 1 2 4 3 1 3 2 1 1 1 1 3 4 5 3 2 4 6 5 4 2 2 3 3 2 4 1 1 3 1 4 5 6 7 8 10 7 5 9 15 17
8 10 11 11 11 11 10 9 8 7 7 7 7 7 7 7 8 8 10 11 12 11 12 12 12 13 12 8 6 5 4 5 2 4 10 12 11 13 13 12 9 9 8 7 6 4 3 3 4 5 3 0 2 2 1 1 2 1 3 5 4 3 2 3 3 3 3 3 3 4 2 3 1 1 2 5 4 5 4 5 9 9 6 7 8 11 13 14
8 10 11 11 11 11 11 10 9 9 8 8 8 8 7 7 8 9 10 10 11 11 11 12 11 12 11 7 5 4 4 2 3 5 10 11 11 11 11 11 9 8 7 6 5 3 2 4 4 3 3 2 0 1 2 3 2 1 3 2 2 3 2 2 0 2 3 5 4 3 3 1 3 2 1 5 9 7 4 2 4 5 3 7 11 12 10 9
9 10 11 11 12 11 11 10 10 10 9 9 9 9 8 8 9 9 9 10 9 9 10 11 11 11 10 6 3 4 6 1 3 6 9 12 10 9 9 9 10 7 5 7 7 3 3 5 2 3 3 3 1 2 1 3 3 1 3 3 1 2 3 2 1 2 3 4 4 2 1 2 3 2 1 4 10 7 4 1 1 1 2 8 10 9 9 10
9 10 11 11 11 11 11 11 11 10 10 10 9 9 9 9 9 9 9 9 8 7 9 10 10 9 9 5 1 4 4 1 4 7 10 11 10 9 6 7 9 6 7 11 7 3 4 4 1 3 2 2 3 3 0 2 3 2 5 3 0 2 5 3 0 2 4 3 1 2 1 4 5 2 0 5 6 6 5 4 1 3 6 7 7 6 6 7
9 9 10 10 11 11 11 12 12 11 11 11 10 10 10 10 9 10 9 9 8 7 8 10 9 8 7 4 4 4 3 2 6 8 10 11 10 7 4 6 9 7 9 12 8 5 3 1 2 3 2 2 4 3 0 1 2 4 5 2 2 3 4 2 2 3 3 3 2 3 4 4 3 1 2 3 6 7 5 5 3 4 6 4 4 3 3 3
9 9 9 10 10 11 12 13 13 12 12 12 12 11 11 11 10 10 10 9 8 7 8 9 8 7 5 3 6 4 1 2 7 9 11 12 9 4 4 7 9 8 8 8 9 7 4 4 4 4 5 2 3 3 2 3 2 3 3 3 4 3 4 1 2 3 1 3 3 5 5 3 3 1 2 3 7 8 5 6 5 6 6 6 6 5 7 7
8 9 9 10 11 12 13 14 13 13 12 12 13 13 13 12 11 10 10 9 7 6 7 8 7 6 4 4 6 3 1 3 7 11 11 11 8 4 6 8 8 7 6 6 7 6 4 6 8 5 2 1 2 1 2 4 3 2 1 4 5 4 3 1 2 3 2 2 4 5 3 2 2 2 2 9 10 6 7 7 7 8 6 7 7 6 7 8
8 9 10 11 13 14 14 14 14 13 13 14 15 15 14 13 12 11 9 8 6 5 7 8 6 4 3 5 5 2 2 4 9 13 10 9 9 4 5 10 8 4 3 5 4 4 4 6 8 5 1 3 2 1 2 2 3 2 2 3 8 6 4 3 3 3 1 1 3 2 3 4 2 3 5 11 10 5 8 8 7 8 6 7 6 5 6 9
9 10 12 13 14 14 14 14 14 15 15 16 16 16 15 13 12 10 8 6 5 4 6 7 4 3 4 4 2 2 3 4 9 14 9 9 9 1 4 12 7 2 2 5 5 4 4 5 7 5 2 4 0 1 3 2 3 1 2 2 5 7 4 3 2 2 1 1 1 1 3 4 1 2 7 9 9 7 9 8 6 6 6 6 6 6 6 10
11 12 13 14 14 14 14 14 14 16 16 18 18 17 13 10 8 7 5 5 5 5 6 5 2 2 3 1 0 4 4 3 11 16 11 12 11 3 6 10 4 3 3 4 5 5 5 6 8 6 2 3 0 1 3 5 3 1 1 2 2 3 4 4 3 2 1 0 4 2 2 4 2 2 9 9 8 7 8 7 6 6 6 6 6 8 7 11
12 13 13 14 14 14 13 13 15 16 18 19 16 12 8 6 5 4 3 4 5 5 4 2 0 1 4 1 1 3 5 8 14 16 13 17 13 6 10 7 5 5 4 4 6 7 7 7 7 5 1 2 3 3 3 4 4 3 2 3 3 0 5 6 4 2 1 1 5 3 2 5 2 4 11 10 9 7 7 6 6 7 7 7 7 9 8 11
13 14 14 14 14 15 13 14 17 17 19 18 12 10 9 7 6 5 3 4 4 3 1 1 2 3 4 1 1 3 6 10 15 12 12 18 12 7 11 4 4 5 4 6 7 7 6 6 4 2 1 2 4 4 3 4 4 3 1 3 3 1 4 5 3 2 2 2 4 3 2 4 2 6 11 11 10 7 6 6 7 7 8 8 7 9 9 10
14 14 14 15 15 15 13 13 17 18 19 17 9 9 9 9 10 9 5 4 4 4 5 4 1 4 4 1 2 4 7 10 13 11 13 17 11 7 9 2 3 6 6 6 4 3 5 4 1 1 2 3 2 3 4 4 4 3 2 1 3 2 2 4 3 3 5 2 2 3 2 4 4 9 12 13 11 6 6 6 6 7 7 8 8 9 10 10
14 14 15 16 16 16 13 12 16 18 18 16 9 6 7 8 12 15 11 5 5 5 7 6 5 4 2 4 2 6 12 12 10 12 17 16 8 6 6 2 2 4 5 4 2 2 3 2 2 1 4 4 3 5 1 3 2 3 4 2 4 2 2 4 4 2 5 4 1 3 4 4 8 11 11 12 10 7 6 5 7 7 8 8 9 10 10 11
14 15 15 16 16 17 16 12 14 17 17 16 10 3 4 3 4 11 17 13 5 3 3 4 5 3 2 5 5 12 14 8 5 12 20 18 9 4 4 4 3 3 4 2 3 3 2 3 4 3 4 4 3 2 4 6 4 3 4 3 4 5 3 5 5 3 3 3 3 3 2 4 8 10 10 10 8 8 7 7 7 7 8 9 10 10 10 12
14 15 15 16 16 17 17 13 12 17 17 16 11 3 3 5 2 4 13 13 4 3 2 2 1 1 2 4 7 14 10 2 2 12 23 21 10 4 3 5 6 6 5 0 3 3 3 4 4 2 4 5 5 4 4 3 4 2 2 2 4 4 5 5 4 4 1 0 4 1 3 6 7 8 9 8 8 10 8 8 8 7 9 9 10 11 11 11
13 14 14 16 16 16 17 13 12 16 16 16 13 6 2 2 3 2 4 5 0 1 3 2 2 1 3 4 8 12 4 0 3 11 24 21 7 2 4 5 6 6 4 2 3 3 4 5 1 4 5 5 3 3 3 3 3 2 1 2 3 3 6 5 2 5 2 0 3 1 5 6 6 6 7 8 9 10 7 7 8 9 9 8 10 11 10 9
13 14 15 16 16 16 16 12 11 13 13 15 14 9 5 4 3 1 1 3 1 2 3 2 1 3 4 2 7 9 3 5 6 10 23 21 7 3 3 5 6 2 4 2 2 5 5 2 4 5 3 1 2 3 4 3 2 1 1 1 3 3 4 4 3 5 3 0 3 1 4 4 4 6 8 9 9 8 7 7 7 8 9 8 9 9 9 9
14 14 15 16 16 16 16 11 9 12 13 14 13 8 5 4 4 2 3 4 1 3 3 3 2 4 5 1 7 10 4 5 4 8 20 17 6 4 3 5 5 2 5 5 4 3 3 2 3 1 3 2 2 3 4 4 2 1 1 1 4 3 2 3 3 4 2 1 2 1 3 2 2 5 8 8 7 7 8 10 9 8 9 9 9 8 9 10
14 15 15 16 16 16 15 10 8 11 12 12 12 7 5 4 3 3 3 3 1 2 1 1 1 1 3 2 8 8 3 2 1 6 16 12 4 3 3 3 4 4 4 3 5 3 2 4 1 4 4 2 2 4 4 4 4 3 2 2 4 4 2 4 4 5 3 2 0 0 1 1 2 4 5 5 6 9 8 9 11 9 9 9 10 11 11 11
15 15 15 16 16 16 13 7 8 10 7 7 8 5 4 3 2 2 3 3 2 3 2 1 2 2 3 3 9 5 2 2 1 4 10 9 4 3 3 1 2 5 4 1 5 3 2 3 1 3 5 5 4 4 4 2 4 4 2 3 5 3 3 4 5 6 4 3 2 2 3 2 2 4 4 4 6 9 8 8 10 8 8 9 9 10 10 10
15 15 16 16 14 15 10 3 7 8 4 4 5 3 2 2 3 3 3 4 2 4 4 2 1 5 7 5 8 3 2 3 1 3 7 8 4 1 2 3 2 4 2 0 2 1 1 3 3 4 4 6 6 4 4 2 4 4 2 2 3 1 3 5 5 4 2 2 3 2 1 3 1 4 4 3 7 9 8 9 9 7 7 8 8 7 8 8
15 15 15 15 13 14 7 1 5 6 2 2 4 3 1 2 3 3 2 5 4 2 3 4 2 6 7 6 8 3 2 6 2 4 7 9 6 0 3 4 2 3 2 2 3 1 2 5 6 6 5 6 6 3 3 2 3 4 2 2 2 4 5 5 2 1 2 2 3 2 1 3 2 2 1 2 6 8 8 9 8 7 7 7 7 7 7 7
14 13 13 13 13 12 6 3 4 3 2 3 3 2 1 3 3 2 5 4 3 1 0 4 3 5 7 7 8 6 1 6 3 4 8 9 8 3 4 3 2 2 3 4 4 3 2 4 6 6 5 5 2 2 4 1 1 4 3 2 3 4 3 1 2 2 1 2 3 4 2 2 3 0 1 1 4 5 6 6 6 7 7 6 6 6 7 6
12 11 11 12 10 10 6 5 6 3 3 4 2 1 3 3 2 3 6 3 2 1 1 2 3 5 8 7 7 5 3 4 3 6 10 9 9 6 3 0 4 3 3 4 2 3 2 2 1 3 5 3 3 5 3 2 2 4 2 2 1 3 2 2 3 2 2 3 2 5 3 1 3 1 1 0 2 2 3 4 4 5 5 5 5 5 5 5
9 8 10 11 10 9 3 3 8 6 4 4 1 3 5 3 4 6 5 0 1 2 1 3 3 4 8 8 6 6 5 4 2 6 6 4 10 9 4 1 5 5 3 4 2 2 3 1 1 3 2 2 4 3 1 2 4 4 2 3 1 4 3 2 2 3 4 3 3 6 4 1 2 2 2 0 1 3 4 4 3 4 4 4 4 3 4 4
7 7 10 11 12 12 5 3 9 7 5 3 3 5 4 2 5 7 2 1 1 3 3 5 4 4 8 6 4 6 5 5 5 6 6 4 9 11 6 3 4 4 5 6 5 5 5 4 2 2 1 1 1 3 1 1 3 4 3 3 3 4 4 4 4 4 4 2 4 5 2 2 2 3 1 3 3 3 4 4 4 4 4 3 3 3 3 3
5 6 10 13 15 16 10 6 8 7 5 1 5 4 4 3 5 3 1 4 3 3 3 3 4 5 6 3 4 6 4 5 5 5 3 3 6 7 7 5 3 5 6 5 6 6 5 3 2 2 2 4 4 4 4 3 5 5 4 5 5 4 4 4 4 2 1 3 3 1 2 0 2 1 2 4 5 5 4 4 4 4 4 3 3 3 3 3
4 7 11 15 17 18 15 9 7 6 3 3 5 4 6 5 3 1 3 3 2 2 1 1 4 5 4 3 5 6 3 3 6 4 2 2 5 4 5 6 5 4 3 3 5 6 4 4 4 4 3 3 5 4 5 4 5 6 3 4 4 3 5 5 3 2 3 4 4 1 2 2 1 2 3 3 4 4 4 4 3 4 4 3 3 3 3 4
4 8 11 15 18 20 18 11 5 3 1 4 4 6 8 5 1 1 3 3 2 3 2 1 5 5 4 4 3 5 3 3 5 6 4 3 5 4 4 7 8 4 1 2 3 4 4 4 4 5 3 4 5 3 1 1 2 2 1 3 4 3 2 3 2 2 5 5 5 3 1 2 1 2 2 2 3 3 4 3 4 5 4 3 2 2 3 3
2 6 12 17 21 21 18 11 6 2 3 5 8 7 7 2 3 0 2 4 2 4 3 2 4 5 4 3 3 3 2 2 4 5 5 5 4 2 3 5 7 4 3 3 1 1 3 4 5 2 2 4 5 2 1 2 2 1 1 4 3 1 3 1 2 3 3 4 4 3 1 2 1 2 1 3 3 3 3 3 5 6 5 4 4 3 2 2
3 1 10 19 24 22 18 12 7 3 4 6 9 6 3 2 2 1 1 2 1 3 5 5 5 5 4 5 4 5 2 1 3 4 4 3 3 3 3 2 4 4 3 2 1 1 2 4 5 3 3 3 3 3 2 3 2 1 2 3 3 2 5 2 3 1 2 2 3 2 1 1 1 1 1 2 2 2 3 4 6 6 6 5 5 4 3 2
3 2 6 21 27 21 17 11 6 7 6 8 8 3 1 1 1 2 1 1 0 1 3 4 3 3 3 3 4 7 5 2 3 4 2 2 2 3 4 2 1 2 2 1 1 1 0 4 5 3 2 2 1 1 3 3 2 3 3 3 2 1 4 3 1 4 4 1 4 3 2 4 3 1 1 1 1 1 2 4 6 6 6 5 5 5 5 3
2 2 4 19 26 19 14 9 6 9 8 8 7 3 1 1 0 1 1 1 0 1 4 2 2 2 1 2 3 6 6 4 5 4 2 2 2 3 3 3 1 2 2 2 1 0 2 1 6 2 1 5 2 3 3 5 3 4 2 3 2 3 2 2 2 3 3 3 5 4 3 2 1 1 4 5 5 3 2 4 6 7 7 6 6 8 7 4
2 2 2 18 23 14 12 10 8 9 9 6 4 2 0 1 0 1 0 1 1 3 4 0 2 2 1 1 2 4 4 3 4 3 2 2 2 3 3 1 2 3 4 1 1 1 2 2 4 4 2 4 4 4 2 4 5 4 3 4 3 2 2 1 1 0 1 3 4 4 5 2 1 3 6 3 2 1 2 4 5 6 7 6 6 7 7 4
3 2 2 19 21 8 11 19 14 8 7 4 2 2 1 0 0 1 1 1 1 2 2 1 1 2 2 2 1 2 3 3 2 2 2 2 1 1 2 1 3 6 6 3 3 1 2 3 2 6 4 3 3 2 1 1 4 5 4 5 5 2 0 1 0 1 1 2 2 4 5 1 1 3 5 5 4 4 3 3 3 4 5 4 5 6 7 5
4 3 4 20 17 3 8 17 12 5 5 3 1 2 1 1 1 2 1 0 0 0 1 3 2 1 1 2 2 1 2 2 2 1 1 2 3 2 2 2 2 5 5 5 4 2 2 2 1 4 5 3 1 2 2 2 1 4 3 2 3 2 2 2 3 1 2 1 2 4 5 1 0 2 3 4 4 3 2 1 2 4 4 4 4 6 8 6
6 3 6 18 13 6 10 9 3 3 4 2 2 1 1 1 2 2 1 1 1 1 2 3 2 1 1 1 1 1 1 2 2 2 1 1 2 1 1 2 1 3 1 2 2 1 1 3 1 3 3 2 4 3 1 2 4 6 4 2 1 1 3 2 2 2 1 1 1 2 3 1 2 1 1 3 3 3 1 0 1 4 4 5 6 9 9 4
3 2 8 18 9 3 10 7 3 5 4 0 0 1 1 1 1 1 1 2 1 1 2 2 1 1 0 0 1 0 0 0 0 1 1 0 0 1 2 3 3 1 2 1 2 2 1 3 2 3 4 4 4 3 1 2 5 6 4 3 2 1 1 3 4 1 1 1 1 2 4 1 2 2 2 3 3 1 1 1 2 5 6 6 8 10 9 2
2 3 6 19 12 6 7 5 2 3 1 0 2 3 3 1 1 2 2 2 2 1 2 1 1 1 0 1 1 0 1 1 1 1 1 2 0 1 3 4 4 2 3 0 1 2 1 1 2 3 5 6 6 6 4 2 4 4 2 3 3 3 3 1 1 2 0 0 3 3 5 1 2 3 2 2 2 4 3 2 4 7 8 8 8 10 6 2
3 1 3 16 21 14 5 3 6 4 1 2 4 4 4 2 2 1 1 1 1 1 2 1 1 1 0 1 2 2 1 2 1 2 2 1 2 2 3 3 3 2 1 2 1 1 1 1 2 4 3 2 3 4 4 4 4 3 2 5 5 4 3 1 1 2 0 2 4 3 5 4 1 4 2 2 3 6 6 5 5 6 8 8 8 9 4 2
3 3 2 8 14 11 4 1 4 5 3 3 4 3 3 2 1 1 1 1 1 1 1 1 1 2 2 3 3 3 3 3 2 2 2 2 3 2 3 4 2 4 5 1 2 3 3 2 2 5 5 3 5 6 4 3 3 2 3 5 4 2 1 2 2 1 1 4 4 4 5 9 8 3 1 4 6 7 8 8 7 8 8 8 8 7 2 2
3 3 1 2 4 5 4 4 5 3 3 3 3 2 3 3 3 2 1 1 0 1 1 1 2 3 2 3 3 2 3 4 3 2 2 2 3 3 4 2 2 8 9 2 2 3 5 3 3 3 4 5 6 7 4 3 0 1 0 3 4 4 2 4 3 2 2 3 4 5 8 11 12 5 3 6 7 7 8 9 10 10 9 9 9 6 1 0
3 3 1 0 2 2 3 4 4 5 5 3 3 1 3 3 3 1 1 2 1 1 1 2 4 4 1 1 2 2 4 4 2 1 1 1 3 4 4 2 2 7 7 4 3 3 6 2 1 1 4 7 5 4 2 0 2 3 2 1 3 3 2 4 2 4 2 2 7 10 11 13 10 4 4 6 7 8 9 9 9 9 10 11 10 5 1 2
3 4 1 2 3 3 1 1 2 5 6 5 3 2 2 3 3 1 1 2 3 3 2 3 5 5 2 0 3 2 3 2 1 2 0 0 2 3 3 2 2 4 5 5 4 2 4 0 1 1 5 7 5 2 1 3 3 2 1 3 2 2 1 4 5 4 3 6 9 10 12 12 6 2 4 7 6 7 8 8 9 10 13 13 8 3 2 3
2 4 1 3 4 2 1 2 3 4 4 4 3 2 1 1 2 2 1 1 2 4 3 2 5 5 1 1 4 2 2 2 2 4 3 1 2 0 1 1 2 5 7 4 3 2 3 2 1 2 3 6 5 5 2 3 5 4 2 2 2 4 2 3 4 2 4 7 8 8 11 9 2 1 7 8 6 7 8 10 10 10 13 11 4 3 5 5
4 4 5 6 4 3 3 2 3 4 3 3 2 1 1 1 0 1 2 1 1 1 1 1 4 2 2 3 3 1 4 4 4 5 5 4 1 2 1 1 2 3 5 3 3 4 4 3 2 4 3 5 3 5 5 1 4 1 2 3 3 3 2 3 2 3 6 8 9 9 9 6 2 5 10 9 7 9 11 11 11 12 12 6 3 4 6 5
6 4 4 6 4 3 2 2 3 4 2 2 1 1 1 2 1 1 0 1 1 1 2 2 2 1 2 3 2 2 4 4 4 3 3 3 3 2 1 2 3 1 0 1 2 2 2 2 2 3 2 4 3 5 4 4 4 4 4 2 3 4 3 4 4 5 5 5 6 7 6 5 6 9 12 11 10 11 11 10 11 12 9 4 3 5 5 4
Wind_Direction
27 25 22 15 12 14 18 22 24 27 33 33 29 21 11 1 356 355 353 353 353 354 354 351 350 347 345 346 345 356 6 33 57 48 50 26 352 347 344 339 345 352 348 347 354 3 4 3 358 13 69 69 14 347 15 21 50 56 93 137 216 195 202 188 185 196 187 280 249 206 210 180 253 253 211 293 13 10 322 296 285 282 39 121 78 126 148 156
21 20 17 14 15 20 25 27 28 32 38 36 31 25 16 6 358 357 353 354 354 353 353 351 351 346 344 346 343 0 13 55 68 57 40 10 357 349 345 344 347 349 348 350 360 15 22 343 338 21 52 51 358 4 26 358 51 88 114 161 228 198 213 201 178 193 200 228 192 226 228 194 218 183 129 232 312 1 265 281 325 290 260 122 104 134 149 157
18 18 16 16 19 23 26 26 29 36 37 33 29 22 15 7 359 357 355 356 354 352 353 353 353 347 346 345 345 358 7 52 58 36 11 4 359 352 352 350 347 351 351 353 358 5 10 314 328 44 53 40 337 15 51 9 15 147 130 213 243 212 231 229 191 201 208 187 152 219 176 190 242 205 147 208 273 329 224 246 224 251 247 199 139 148 155 160
20 18 17 19 21 23 24 24 27 30 27 24 22 16 10 2 356 351 351 352 350 351 352 354 353 349 348 345 353 349 2 50 35 341 1 3 356 355 356 350 351 356 358 2 0 2 15 45 58 65 76 9 327 12 73 323 347 147 150 202 229 197 240 231 204 211 206 179 147 147 125 248 256 197 178 156 207 288 239 228 206 226 235 194 163 166 164 166
22 17 16 19 21 22 20 18 15 12 7 5 5 2 357 350 345 340 340 342 345 349 351 354 353 350 349 346 350 338 11 48 339 338 4 2 357 355 356 355 356 356 359 4 1 15 35 56 57 51 62 26 342 24 335 333 71 156 203 201 191 158 247 259 204 205 168 109 93 116 166 247 200 163 186 155 200 254 229 224 211 224 232 179 171 172 169 173
21 15 16 16 17 17 15 12 6 359 351 347 344 341 340 335 332 329 329 334 339 345 349 352 351 351 349 348 351 0 63 70 311 1 5 5 2 355 359 359 1 359 0 10 13 36 48 36 43 55 49 33 184 181 263 337 44 228 270 262 210 186 232 293 56 212 154 114 130 167 222 118 82 271 194 170 221 233 218 208 191 236 254 170 163 162 169 180
17 13 14 13 14 13 10 7 1 355 347 341 335 332 330 327 325 323 323 326 331 338 346 349 350 351 348 346 346 30 80 115 326 8 4 5 1 358 6 1 8 10 18 26 24 63 89 43 31 150 82 13 241 194 256 341 30 173 264 307 295 194 216 258 32 218 163 152 193 182 177 134 162 241 59 221 243 253 268 293 119 210 154 147 152 165 179 182
9 8 7 8 9 7 5 1 356 350 345 339 334 330 323 321 319 316 318 318 321 329 339 346 347 350 351 350 17 35 46 330 348 5 1 3 359 3 5 9 21 26 49 42 36 106 106 56 76 158 93 296 198 161 69 351 14 174 228 277 70 211 249 264 315 223 195 207 214 114 196 228 202 154 63 268 287 312 311 341 40 110 115 135 150 171 179 178
5 3 2 3 2 0 357 353 352 347 342 338 333 329 321 317 312 310 313 311 315 318 329 344 346 350 352 3 83 57 349 328 8 4 359 1 360 1 0 29 35 40 63 55 55 95 111 106 199 177 151 206 172 157 112 259 272 211 204 235 220 264 290 271 214 227 220 240 131 152 261 271 223 143 264 287 354 331 332 17 21 92 88 89 103 101 79 84
3 360 359 358 356 355 352 350 349 345 343 341 336 332 324 317 310 307 307 308 312 308 322 339 342 353 360 23 71 66 315 9 18 7 2 0 357 350 14 38 38 47 70 63 58 75 108 166 173 147 136 129 155 156 157 178 198 190 189 240 239 290 317 319 248 264 271 258 169 188 263 287 244 248 275 313 351 333 11 30 19 71 67 55 64 60 67 72
2 3 2 358 357 353 351 351 348 346 345 342 338 332 325 319 312 305 302 304 306 304 319 336 342 351 4 58 85 91 3 38 22 10 359 355 359 5 35 28 19 42 72 70 63 73 101 163 151 118 130 135 145 144 209 192 128 123 114 293 286 322 322 6 326 297 341 247 184 186 252 301 311 53 337 318 324 336 45 31 23 59 56 54 62 59 63 68
7 7 4 359 357 353 353 353 350 349 343 338 334 328 323 317 311 305 298 297 301 303 314 331 345 348 13 57 90 107 51 53 21 7 356 357 8 25 37 8 357 35 84 89 91 84 85 158 139 101 231 147 146 284 208 184 90 82 61 317 302 352 360 352 348 281 320 201 182 179 299 330 14 50 343 328 326 356 55 34 27 52 51 56 58 55 49 56
12 7 3 359 358 356 356 355 352 349 341 338 332 324 319 310 307 307 298 290 293 301 315 330 341 353 39 57 71 67 59 49 6 358 3 12 10 22 8 354 350 67 104 106 114 88 82 155 130 105 135 114 141 224 109 57 43 297 54 42 313 356 349 325 346 281 205 166 344 358 298 309 122 44 348 345 344 11 49 33 32 50 51 56 52 59 53 50
12 5 2 1 1 360 358 357 353 348 344 340 333 327 322 313 310 309 298 281 286 295 308 324 332 1 57 92 16 47 37 8 351 355 12 11 5 355 346 353 12 97 117 119 110 88 93 126 109 96 96 80 97 126 52 11 16 297 350 36 355 354 294 305 347 348 144 161 6 49 247 276 213 31 358 353 352 24 53 34 42 56 54 62 62 70 67 60
8 5 6 7 5 2 1 360 355 351 350 345 342 347 355 358 355 348 322 276 287 305 309 319 216 75 79 75 21 44 13 356 354 360 8 1 0 350 343 7 71 70 100 119 105 96 100 112 91 74 38 10 52 66 358 345 9 14 335 308 348 29 280 312 346 32 86 329 11 62 233 278 249 20 356 353 359 28 62 51 58 71 71 78 77 80 81 74
7 9 10 9 7 5 2 3 2 357 355 356 4 17 28 41 39 32 356 308 303 307 11 105 166 104 91 58 356 33 7 351 352 0 359 354 356 337 339 14 76 48 99 114 106 96 74 78 70 57 97 34 62 75 18 1 348 1 39 268 294 320 305 325 349 24 29 322 355 30 237 269 359 13 351 358 4 21 67 69 70 81 83 86 86 86 85 77
11 12 11 10 9 7 2 2 4 2 1 5 20 29 41 60 52 40 19 21 67 98 92 84 122 94 76 25 16 7 343 335 347 2 355 353 354 342 347 19 51 46 93 96 97 80 35 51 70 337 46 44 77 79 25 353 322 328 25 272 266 269 299 317 318 351 19 26 334 355 245 258 353 2 354 1 1 19 69 75 80 86 85 88 87 83 76 72
14 13 12 11 9 8 4 357 1 7 7 6 15 36 52 69 61 48 41 68 99 90 77 42 40 91 30 354 350 315 320 321 345 6 359 355 355 355 5 32 44 59 78 58 44 32 6 28 89 56 22 11 33 66 50 266 258 295 308 302 298 294 248 281 279 303 13 23 297 312 285 298 354 359 360 360 358 28 60 75 87 85 84 85 80 76 73 70
15 13 12 11 9 8 5 358 360 8 12 10 6 19 33 37 70 48 42 52 69 62 61 345 22 108 274 320 309 315 321 312 341 6 1 358 348 342 10 28 42 77 76 41 354 22 29 28 42 26 348 330 336 110 196 222 198 237 263 238 277 291 269 261 261 273 13 7 283 275 287 356 4 358 2 355 3 41 55 69 79 78 80 79 74 74 72 69
14 12 10 8 7 4 2 1 1 7 15 16 10 11 22 16 6 5 26 41 67 87 73 272 352 83 308 308 318 335 339 286 18 8 3 355 335 325 7 19 26 46 64 176 306 7 81 55 26 297 277 277 269 222 199 195 176 182 206 219 260 273 281 274 273 303 12 223 279 224 81 39 15 2 5 356 18 40 42 59 70 72 74 73 75 75 70 70
12 9 8 6 3 1 0 357 1 11 15 18 29 55 91 70 42 325 351 30 52 74 46 265 226 308 299 290 326 345 356 355 357 6 4 355 334 339 357 19 37 30 14 239 265 340 60 63 359 250 238 249 269 207 147 112 125 111 176 258 296 248 268 279 286 317 333 156 289 86 79 44 28 19 13 15 37 37 27 54 68 75 77 74 76 74 72 73
8 7 6 3 1 358 357 355 3 11 13 23 47 79 117 139 117 189 154 78 11 13 22 328 359 331 293 275 342 354 42 13 340 348 1 1 7 22 356 36 62 29 339 354 3 355 29 58 253 250 212 166 41 106 109 85 93 71 135 336 316 263 282 307 334 330 348 86 282 31 76 60 43 44 37 30 44 43 33 53 62 72 77 71 71 71 70 69
2 2 2 0 359 357 356 358 2 7 18 38 61 90 110 119 126 133 104 97 25 353 15 18 37 343 333 17 357 2 58 33 324 329 355 2 15 38 55 44 53 31 355 26 58 30 6 304 263 259 108 116 20 47 61 37 35 294 249 308 291 304 334 300 317 328 317 250 257 35 73 89 45 51 54 36 43 52 45 57 57 56 65 65 65 63 62 63
354 355 357 356 356 355 353 356 8 14 29 55 67 78 117 130 126 113 86 87 30 336 3 353 171 6 347 334 353 5 96 53 299 323 353 8 8 17 68 55 47 32 357 51 82 82 290 290 9 69 65 82 337 4 42 34 355 303 229 221 271 315 305 243 290 318 316 346 314 40 14 63 43 41 52 33 42 50 43 56 57 50 57 62 63 59 58 60
349 350 353 354 354 354 350 1 24 21 32 61 58 60 123 137 151 137 92 78 359 317 333 319 167 23 337 323 354 3 157 34 7 303 346 16 8 359 50 49 63 20 325 74 65 55 313 304 62 59 34 42 40 12 10 27 356 323 253 218 250 281 280 271 324 340 348 357 2 32 346 320 41 54 46 28 48 51 40 48 51 44 48 55 60 60 59 61
348 348 351 354 353 354 352 20 23 11 25 51 30 25 147 161 169 157 97 67 11 320 351 4 131 4 350 344 348 355 109 1 334 330 358 18 8 117 61 341 36 21 313 157 41 66 28 2 58 69 44 36 48 33 354 53 44 335 280 195 227 248 282 293 337 354 338 306 321 39 335 269 350 60 42 39 63 60 51 50 48 43 44 51 57 61 62 63
350 350 353 355 356 1 7 63 11 10 44 13 354 2 173 164 146 154 78 44 9 311 342 329 325 6 354 333 339 53 78 318 325 35 15 12 351 112 58 1 17 358 298 87 30 354 355 3 27 40 44 40 45 30 333 80 55 309 249 144 271 299 292 291 335 257 249 289 311 346 147 253 295 59 30 50 75 66 58 54 48 49 52 56 61 62 65 65
355 353 356 358 1 13 38 70 20 26 23 315 313 352 162 154 145 134 86 68 339 324 349 303 316 360 343 334 3 70 103 316 23 1 349 19 6 5 54 34 107 322 311 66 29 305 359 31 25 25 38 46 49 269 262 169 358 277 227 205 265 292 284 229 131 199 280 4 325 332 24 275 281 63 300 354 76 68 63 59 51 57 61 65 69 67 69 69
358 359 3 5 9 20 45 62 35 28 348 316 287 238 164 140 117 76 75 102 301 347 178 311 343 340 343 356 14 39 12 2 52 325 337 24 13 22 81 95 121 120 328 54 67 288 359 59 116 70 54 26 273 260 241 152 290 275 251 253 234 64 50 86 107 136 41 29 302 316 344 287 280 251 193 355 86 100 87 73 58 63 67 68 70 70 74 76
3 11 13 14 20 17 22 39 20 15 354 336 251 180 157 115 70 63 44 40 331 325 262 20 9 331 2 15 355 2 24 6 333 333 351 21 1 20 93 190 96 103 354 21 63 304 334 291 201 77 62 250 258 283 182 166 270 299 347 313 342 52 42 48 69 96 55 3 277 293 309 102 308 267 163 356 291 159 134 116 90 73 66 62 63 67 77 82
14 29 24 24 27 22 16 346 355 357 352 352 162 150 135 64 61 86 61 299 336 339 360 12 347 2 26 36 349 350 16 342 333 10 14 4 7 18 34 16 35 48 12 11 3 350 8 13 6 4 310 280 332 341 9 229 297 341 11 346 346 357 17 21 356 42 58 314 265 280 297 139 238 263 131 354 351 91 119 126 112 91 74 64 64 68 82 90
35 41 28 23 23 20 15 344 341 349 349 100 141 110 94 42 32 84 295 321 343 346 5 330 320 3 6 22 7 341 342 339 356 47 35 17 36 33 34 28 357 0 12 6 349 356 10 351 331 313 321 29 23 351 351 356 3 10 14 22 16 354 6 7 341 12 81 254 245 301 356 216 220 281 21 14 30 53 71 95 104 100 90 78 71 67 76 82
58 46 26 17 14 10 4 352 344 355 354 152 131 61 73 80 34 268 283 328 357 331 338 273 310 336 334 4 5 334 339 351 353 27 54 64 61 42 32 30 24 24 6 351 356 2 343 307 353 14 342 20 42 26 357 340 359 9 18 45 39 26 8 336 313 334 301 275 261 289 352 288 256 36 21 35 61 64 69 79 86 91 90 85 82 63 53 61
74 46 25 12 7 2 358 353 353 4 89 120 91 50 64 77 278 284 312 289 277 328 353 297 315 335 22 37 346 329 13 1 351 16 15 34 47 20 9 13 19 37 68 28 20 17 4 318 355 24 335 352 38 53 9 287 358 353 188 107 77 82 43 298 271 306 302 296 293 304 319 248 277 15 12 76 80 69 75 79 76 73 66 58 58 46 36 39
114 48 26 11 5 1 357 355 360 25 142 87 61 59 75 97 253 314 309 272 292 327 319 327 350 15 21 353 330 3 37 319 348 35 27 28 50 15 357 355 359 14 51 42 340 13 41 277 280 337 339 14 24 343 215 94 42 315 161 79 37 159 152 212 232 229 281 315 312 302 227 197 135 59 64 88 77 62 68 73 69 62 48 34 14 2 6 6
186 40 19 10 6 1 359 1 13 67 127 84 62 59 95 170 233 152 215 290 353 312 320 354 23 32 351 320 336 359 12 289 344 36 36 40 66 19 2 319 337 13 47 60 299 1 31 282 290 357 22 46 42 309 338 51 14 342 42 20 304 195 137 122 295 301 36 3 300 302 300 298 14 78 59 57 65 73 78 67 59 50 38 29 6 344 317 290
187 210 16 10 4 359 1 10 43 81 93 78 75 94 183 169 171 183 227 338 320 284 11 23 15 19 346 317 323 334 344 347 357 27 33 26 45 11 358 304 296 31 21 337 241 236 87 291 309 22 23 314 164 107 19 31 53 62 32 313 290 68 94 99 355 345 19 327 287 330 326 306 330 5 356 327 242 161 93 65 46 29 16 12 3 343 313 285
163 164 49 8 0 358 3 18 65 79 77 67 74 114 176 93 151 215 210 4 248 45 56 52 345 21 26 321 310 322 346 360 355 19 41 19 30 33 15 321 277 56 346 312 284 304 102 317 304 341 340 299 325 81 20 354 29 75 57 312 28 56 357 28 35 336 344 308 296 316 304 299 21 344 307 265 235 217 105 63 37 16 5 4 357 339 317 291
79 103 46 358 358 7 26 51 75 65 67 70 77 115 119 41 259 244 298 332 125 82 67 76 306 8 34 13 315 318 353 16 350 9 61 29 18 60 54 318 299 355 341 347 127 297 89 103 294 285 267 307 2 49 19 336 351 28 39 0 30 118 193 306 11 246 324 300 301 317 319 337 73 329 328 309 236 128 59 32 24 10 1 358 348 334 324 303
43 91 352 352 358 13 52 62 63 47 62 91 143 129 39 304 250 347 340 321 113 87 68 176 207 351 334 354 18 332 1 29 358 7 47 23 22 52 44 10 324 334 340 24 78 7 22 97 273 293 319 15 30 13 3 324 350 14 36 15 357 337 342 11 314 105 100 288 299 315 311 329 85 347 18 53 70 75 58 19 9 0 346 335 333 334 330 316
46 84 322 347 359 9 53 56 53 42 78 80 106 104 38 122 88 359 331 320 26 82 133 146 136 49 330 356 9 334 346 5 16 49 30 18 46 25 17 68 333 321 350 22 38 20 15 109 217 302 343 26 279 282 279 211 132 62 61 24 342 323 43 33 329 1 87 202 256 291 297 288 69 341 57 81 96 106 89 34 352 344 322 305 327 341 334 329
56 86 323 346 8 63 62 56 22 39 89 62 51 100 25 81 82 359 329 19 38 51 68 96 93 79 150 294 315 241 358 345 359 54 37 16 56 359 351 61 284 269 31 15 319 299 105 100 79 289 299 305 276 293 329 165 113 85 74 43 21 55 86 86 295 308 340 301 240 264 276 221 189 202 114 109 129 144 154 127 345 335 320 317 334 338 333 345
71 140 348 355 356 81 66 60 342 27 68 202 97 88 5 68 85 352 8 16 25 49 24 41 71 41 119 214 319 171 86 332 284 65 9 308 141 273 338 6 310 239 98 18 316 330 56 74 41 303 301 314 312 330 21 112 87 68 42 37 61 32 68 168 189 182 290 298 37 298 278 237 168 176 141 125 112 38 336 15 352 334 329 332 334 331 332 37
106 183 359 13 30 99 86 87 117 61 43 256 55 18 352 52 71 20 12 4 11 77 62 34 345 5 58 148 106 240 267 46 69 41 61 113 129 331 21 1 337 42 85 82 306 340 4 53 48 20 353 342 347 352 343 356 41 57 16 11 38 19 16 133 138 38 165 214 30 313 278 294 162 175 128 97 62 7 350 351 346 334 330 330 328 328 334 107
69 118 320 15 42 69 93 149 140 125 137 84 58 16 359 37 53 22 69 46 9 147 111 10 319 71 26 59 45 338 339 45 37 9 38 52 298 344 23 349 344 28 330 246 268 356 93 108 83 93 73 337 320 315 308 326 4 44 19 357 16 25 25 45 12 31 47 328 353 285 271 314 234 184 137 40 12 353 340 332 328 324 325 323 321 326 333 133
74 60 326 356 30 54 74 118 101 108 129 102 63 15 23 43 328 282 139 105 2 94 84 349 345 66 31 36 35 336 335 15 36 56 51 325 287 300 336 330 336 341 330 338 72 63 99 65 58 128 157 198 222 250 286 347 346 358 349 340 351 341 336 78 94 99 307 305 295 261 290 314 303 273 17 3 356 343 329 328 325 323 326 320 319 327 323 146
95 82 44 340 5 32 42 27 40 72 121 117 95 13 3 352 315 318 97 135 299 72 73 37 46 48 19 33 43 313 316 1 24 65 81 294 284 288 313 340 355 335 337 19 72 72 90 36 19 137 198 224 226 255 304 358 239 167 47 326 334 329 11 82 103 203 278 304 288 300 313 306 302 315 12 351 343 332 322 326 326 323 323 318 321 329 304 308
74 136 199 141 61 45 40 27 47 64 56 74 110 73 1 4 8 7 306 331 13 61 72 36 25 25 339 338 55 6 347 11 20 15 65 308 315 328 335 359 352 337 352 17 6 78 106 63 351 149 269 266 258 275 302 96 155 141 141 257 317 332 87 117 181 218 181 260 284 298 304 298 301 342 16 338 327 320 317 319 319 319 319 319 324 333 337 5
81 112 304 17 87 136 157 4 64 68 49 56 83 65 49 44 28 345 264 359 2 345 43 31 336 342 348 184 108 67 351 20 2 296 234 63 334 359 14 339 305 349 26 30 356 91 118 39 216 156 306 294 292 312 229 187 153 114 304 257 252 293 175 176 217 230 223 254 269 285 296 297 300 355 332 315 308 303 307 313 318 323 323 324 331 353 4 2
130 138 138 58 71 98 51 17 58 66 42 46 64 47 89 86 3 316 255 87 14 338 27 25 310 322 21 114 106 95 256 189 210 248 193 103 340 62 89 297 278 350 18 33 338 349 41 358 178 116 340 302 307 341 314 190 149 146 242 281 320 336 319 227 228 280 295 277 277 289 296 294 266 275 310 308 301 301 309 318 324 326 325 328 351 17 349 346
97 126 137 108 62 7 13 21 64 76 38 15 47 68 7 14 314 261 262 202 142 315 338 311 292 316 63 79 99 147 249 215 212 228 192 158 173 183 170 175 181 341 358 23 346 356 35 18 31 65 9 276 283 346 339 96 112 127 292 336 332 310 287 252 257 325 313 298 302 307 305 304 299 310 314 311 309 312 316 323 327 324 326 342 39 360 338 336
95 90 109 103 74 357 5 11 37 75 70 339 351 188 308 318 227 164 157 285 215 229 236 204 190 147 65 66 114 220 247 218 204 216 185 147 121 111 82 106 119 96 7 97 20 5 88 78 42 50 355 266 283 330 339 82 60 311 273 233 248 259 285 290 291 308 293 270 291 301 298 308 315 316 318 318 321 324 325 328 327 322 329 14 28 342 336 329
Height
819 819 819 818 817 817 816 816 815 815 814 814 814 814 813 813 813 812 812 811 811 810 809 808 808 807 806 805 804 803 803 803 803 803 804 806 806 805 804 803 802 801 801 800 799 799 799 799 799 799 798 800 804 805 805 807 809 808 813 820 821 825 824 817 817 820 815 809 813 821 825 819 815 820 821 821 821 820 822 822 822 822 823 825 825 825 826 826
820 819 819 818 817 817 816 816 815 815 815 814 814 813 813 813 812 812 811 811 810 810 809 808 807 806 805 804 803 803 802 802 802 803 805 806 806 805 804 802 802 801 800 800 799 799 800 800 800 800 800 802 806 806 805 808 809 811 820 822 818 818 816 814 813 814 814 810 813 819 824 822 816 818 820 817 818 821 819 818 822 821 821 824 825 826 826 827
821 820 819 818 818 817 816 816 815 815 815 814 814 813 813 813 812 812 811 811 810 810 809 808 807 806 805 804 803 802 802 801 802 805 806 806 805 804 803 802 802 801 800 800 800 800 800 801 800 800 802 803 808 808 806 809 810 813 820 817 813 814 814 816 816 813 815 814 813 817 824 824 819 820 819 816 817 819 817 815 818 817 816 820 825 826 826 827
821 820 820 819 818 817 816 816 815 815 815 814 814 813 813 813 812 812 811 811 810 809 809 808 807 805 805 803 803 802 801 802 805 807 807 806 805 804 803 802 801 800 800 800 800 800 800 800 800 801 802 805 810 810 808 810 811 815 817 811 811 818 814 812 816 815 818 820 815 816 823 821 819 822 819 817 817 814 814 813 813 812 811 816 824 826 826 827
821 820 820 819 818 817 817 816 816 815 815 814 814 813 813 812 812 811 811 810 809 809 808 807 806 805 804 803 803 802 802 807 810 808 807 806 805 804 803 802 801 801 801 800 800 800 800 800 800 802 803 806 809 808 809 813 814 814 814 811 815 820 812 809 818 819 821 822 818 818 818 816 820 822 818 818 815 810 809 810 810 810 811 815 821 823 825 826
821 820 820 819 818 817 817 816 816 815 815 814 813 813 812 812 811 811 810 809 809 808 807 807 806 805 804 803 803 801 804 810 811 808 808 807 805 805 803 803 802 801 801 800 800 800 800 801 801 803 805 807 809 809 811 817 817 811 811 815 818 819 812 812 819 820 822 818 815 817 816 819 820 816 821 821 812 809 810 811 812 813 814 815 818 821 823 824
821 821 820 819 818 818 817 816 816 815 814 814 813 813 812 811 811 810 810 809 809 808 808 807 806 805 804 803 804 803 806 810 810 808 808 807 805 805 803 803 802 800 801 800 799 800 801 802 802 806 807 808 810 811 814 817 817 814 811 813 818 821 816 817 820 821 822 816 816 821 819 819 815 815 824 819 809 811 813 815 815 815 816 816 818 820 820 821
821 821 820 819 819 818 817 816 815 815 814 813 813 812 811 811 810 810 809 809 809 808 808 807 806 806 805 804 804 806 808 809 810 809 808 807 805 804 804 803 802 801 800 799 800 800 801 802 804 808 808 809 812 812 816 816 814 815 813 813 819 821 818 820 822 821 821 820 822 822 818 817 818 821 822 815 812 816 816 816 816 816 816 817 819 821 822 823
821 821 820 819 818 817 817 816 815 814 813 813 812 811 811 810 810 809 809 809 808 808 808 807 807 806 805 805 805 808 810 810 810 808 807 807 805 804 803 803 802 801 800 800 801 799 801 804 806 807 806 811 813 812 816 814 812 814 814 814 816 816 817 820 820 819 821 821 822 819 815 817 823 824 817 816 819 820 820 818 817 817 818 820 822 824 825 827
821 821 820 819 818 817 816 815 814 814 813 812 811 811 810 810 809 809 808 808 808 808 807 807 806 806 805 804 806 810 811 810 809 808 807 806 805 804 803 802 802 801 801 801 801 800 802 803 805 805 806 810 812 814 817 813 812 816 816 815 816 816 819 822 818 819 823 821 821 817 813 817 824 820 813 818 823 822 820 819 819 819 820 823 825 827 828 829
821 821 820 819 818 817 816 815 814 813 812 811 810 809 809 808 808 808 807 807 807 807 807 806 806 805 805 805 807 811 810 809 809 808 807 806 805 804 803 802 801 801 801 801 801 801 801 802 804 805 805 809 811 814 816 815 815 818 817 813 815 817 819 823 820 820 822 818 820 819 814 819 821 819 821 826 826 823 820 819 822 821 823 826 827 829 830 831
821 820 820 819 818 817 815 814 813 812 811 810 809 808 807 807 806 806 806 806 806 806 806 806 805 805 805 805 808 810 809 809 809 807 807 806 805 803 803 802 801 801 800 801 801 801 802 802 803 803 806 809 810 812 813 817 818 818 818 812 811 812 813 819 820 822 821 815 821 821 811 813 818 823 831 832 827 823 821 822 825 824 827 829 829 832 832 833
821 820 819 818 817 816 815 814 812 811 811 809 808 807 805 805 804 804 804 805 805 805 805 805 805 804 804 807 809 809 809 809 808 807 806 805 804 803 803 802 801 801 800 801 801 801 802 801 802 804 808 809 810 813 814 819 819 816 819 815 812 810 809 818 822 822 820 816 821 820 807 808 821 832 835 833 829 822 820 825 828 829 831 832 833 834 835 837
821 820 819 818 817 816 815 813 812 811 810 808 806 805 804 803 803 803 803 804 804 804 804 804 805 804 805 809 809 809 809 809 807 806 805 804 804 803 802 802 800 800 800 801 801 801 801 802 803 804 809 811 812 815 814 817 818 816 816 819 823 815 806 816 824 820 814 816 820 816 809 807 818 833 835 835 832 822 821 829 832 832 835 836 837 837 838 841
821 820 819 817 817 815 814 813 812 811 809 807 805 803 803 802 802 802 802 803 803 804 804 804 804 804 807 809 809 809 809 808 808 806 805 804 803 802 802 801 801 801 800 801 801 802 802 802 803 806 812 814 814 814 812 814 818 820 814 813 824 822 811 815 825 823 814 816 819 814 811 806 815 833 837 835 834 826 823 831 835 836 838 839 839 840 841 844
821 820 818 817 816 815 814 813 812 810 809 807 805 804 803 803 803 803 803 803 802 803 803 804 804 804 808 810 809 809 809 809 808 807 806 805 804 803 802 801 802 801 801 802 802 803 802 803 809 814 813 814 815 813 813 815 815 823 820 812 818 821 817 816 820 827 823 818 816 814 811 806 817 837 839 836 837 830 826 833 839 838 840 841 841 843 844 847
821 820 819 818 816 815 814 813 812 810 808 807 805 805 804 803 804 803 803 803 803 804 803 804 804 804 808 810 809 810 811 810 809 808 807 805 804 803 802 801 802 802 802 802 802 803 804 807 814 816 815 818 820 815 815 817 813 820 824 818 821 825 824 818 815 824 827 819 816 818 816 812 825 842 841 838 839 834 831 837 843 842 843 844 844 846 848 851
821 820 819 817 816 815 814 813 812 811 809 807 806 805 805 805 804 804 804 803 803 803 803 805 804 808 813 812 813 814 812 811 810 809 807 805 804 803 802 802 802 802 803 804 805 805 806 810 814 812 814 818 820 817 817 820 819 821 823 822 824 827 828 823 817 822 825 819 818 819 816 821 839 847 844 843 843 839 840 843 845 846 847 848 849 852 854 855
821 820 819 818 817 815 814 813 812 811 809 807 806 805 805 804 804 805 805 804 806 809 811 813 812 816 819 817 817 815 812 812 810 809 807 805 804 803 803 802 803 802 803 804 805 809 810 810 811 812 815 819 821 824 821 822 825 826 828 827 826 826 827 824 819 826 830 821 818 820 822 835 850 852 850 849 847 845 846 848 848 850 852 853 855 857 859 860
821 820 819 818 817 815 814 813 812 811 809 807 806 804 805 808 808 809 809 810 815 819 820 821 821 820 819 818 818 814 812 811 811 810 807 805 804 803 803 803 803 803 808 811 808 814 816 810 814 820 822 824 827 831 831 831 833 830 829 828 829 829 825 821 819 828 836 822 819 829 836 849 858 856 857 855 850 851 851 852 854 856 857 859 861 862 864 864
822 820 819 818 817 816 814 813 812 811 809 808 806 806 811 814 814 815 816 818 822 823 822 823 823 821 820 819 818 816 814 812 811 810 808 806 804 802 804 805 804 806 816 821 816 817 816 812 821 828 830 832 833 836 837 834 833 829 828 827 830 832 825 823 826 832 836 824 824 836 840 853 863 859 861 859 856 859 859 859 859 861 863 864 866 867 867 869
822 821 819 818 817 816 814 813 812 811 811 809 807 810 815 817 817 817 818 819 822 823 822 823 822 821 821 820 819 818 817 815 812 810 809 807 803 804 808 809 809 813 819 820 816 815 814 817 826 832 838 839 836 840 836 831 831 829 831 830 828 830 826 825 832 835 835 825 823 832 836 853 864 861 863 862 863 866 865 864 864 865 867 868 870 871 871 872
822 821 819 818 817 815 814 813 812 812 811 810 811 814 816 817 818 818 817 819 822 823 823 822 822 822 821 820 820 819 818 821 818 814 812 809 809 811 813 813 814 816 818 817 816 817 816 822 832 838 842 837 832 836 834 830 830 828 831 830 824 830 829 823 828 832 833 829 827 830 836 854 862 859 864 866 866 869 868 868 869 869 871 872 874 875 875 875
822 821 819 818 817 815 814 813 812 812 812 812 814 815 817 817 818 818 819 822 824 824 824 824 824 823 822 821 821 820 820 824 823 819 817 815 815 816 817 820 818 816 822 825 824 821 820 830 841 842 840 835 828 830 831 828 828 828 831 831 826 831 832 829 831 832 831 832 837 834 827 844 864 863 866 870 868 871 872 872 873 874 876 877 877 878 878 879
822 820 819 818 817 815 814 813 813 813 814 814 815 817 818 817 818 818 819 824 826 824 823 824 825 824 823 822 821 822 823 823 824 823 821 820 819 818 820 825 822 817 824 831 828 822 825 838 845 836 833 834 828 828 833 832 829 829 833 838 835 834 835 835 834 832 825 823 836 835 816 831 866 871 869 873 873 875 877 877 879 880 880 880 880 882 883 882
822 820 820 818 816 815 813 813 814 815 815 815 817 817 817 817 819 818 819 825 829 829 826 823 824 824 823 824 824 824 823 822 825 825 823 822 823 821 821 826 826 823 827 832 829 827 831 841 841 832 831 831 828 831 838 840 832 826 835 846 843 838 837 836 836 835 826 822 834 837 822 829 858 871 873 875 876 880 881 880 883 884 884 885 885 885 886 885
822 821 819 818 817 815 814 815 816 815 815 817 817 817 817 818 818 818 821 828 834 835 832 825 825 826 825 828 827 823 825 826 824 825 825 824 824 823 821 826 827 828 835 832 825 830 834 835 835 834 832 831 830 834 840 844 834 828 842 850 842 840 839 839 841 839 836 837 837 837 834 830 844 868 876 874 876 880 883 884 886 887 887 888 888 888 888 888
822 821 819 818 817 815 815 816 816 816 816 817 817 817 818 818 819 819 821 835 842 837 835 831 826 827 828 830 828 827 831 832 827 826 827 825 825 823 822 828 830 830 838 832 822 832 838 834 836 836 833 834 836 840 845 846 836 833 848 851 845 844 844 845 844 841 847 844 830 837 845 831 838 870 876 870 875 881 886 889 888 890 890 890 891 890 890 890
822 821 819 818 817 816 816 816 816 817 816 816 816 816 818 817 819 820 822 837 844 837 837 833 826 831 834 830 830 834 835 834 835 831 829 828 826 825 827 832 834 833 838 834 825 834 842 843 844 840 838 840 841 843 848 846 838 841 851 850 849 852 850 849 845 843 846 838 829 844 853 835 837 869 878 868 872 879 887 892 890 891 892 891 892 891 891 891
822 821 820 818 817 817 816 816 816 816 816 816 816 816 817 817 819 823 830 841 844 840 839 835 835 843 843 833 831 837 837 838 843 837 832 835 831 829 834 837 836 832 834 834 830 838 848 849 849 847 847 849 847 848 853 852 845 845 847 841 840 847 850 850 851 849 837 827 838 853 855 842 836 858 876 873 873 879 885 891 891 892 892 892 892 892 892 892
822 821 820 819 818 817 816 816 816 815 815 815 815 816 817 819 822 831 842 848 846 843 841 841 846 849 849 847 841 842 842 841 845 841 836 840 839 836 836 839 840 832 831 835 833 837 844 844 847 852 856 853 847 846 851 856 852 844 842 836 829 834 842 841 842 843 827 823 846 855 851 846 836 851 877 881 881 884 885 889 892 892 893 893 893 892 892 891
822 821 820 819 818 817 816 817 815 815 815 814 815 817 815 820 832 846 852 848 845 849 851 852 854 852 855 857 851 852 851 845 846 848 847 849 852 855 853 855 855 840 836 845 843 838 838 843 851 853 855 854 845 840 842 847 847 842 841 839 834 835 840 837 835 840 834 830 845 853 849 843 845 866 886 888 889 889 887 891 892 893 894 893 893 892 891 891
822 821 821 819 818 817 816 816 814 814 814 814 815 816 815 824 845 862 861 851 852 859 861 860 858 859 858 851 851 859 857 850 850 851 853 853 854 861 863 866 866 852 847 854 854 848 841 843 850 848 848 853 849 846 846 845 846 847 847 845 845 849 855 854 852 854 850 841 846 857 853 843 850 879 894 891 892 893 892 893 892 893 894 892 893 892 891 891
822 821 821 819 818 817 815 814 814 814 814 814 814 813 820 837 857 867 863 859 863 864 864 866 862 858 856 851 858 864 854 851 855 851 851 852 853 859 864 866 868 863 858 858 863 863 852 844 847 848 849 852 853 856 858 855 853 857 858 852 850 856 865 867 860 856 855 854 856 855 849 845 853 877 894 894 894 894 893 894 893 892 893 892 892 892 891 891
822 822 821 820 818 817 815 814 813 813 813 812 816 823 836 853 866 868 866 868 870 866 865 870 862 851 850 856 865 867 857 853 857 855 855 859 862 867 870 871 873 870 862 861 867 870 861 850 850 856 859 857 858 862 864 859 854 858 861 855 856 861 866 867 864 867 873 871 864 852 854 870 881 887 895 894 893 896 894 893 894 893 893 893 892 892 892 892
822 822 821 820 819 817 815 814 812 813 812 811 821 843 858 865 869 871 872 873 874 873 866 863 860 853 852 856 859 862 862 858 857 856 860 867 871 873 876 876 878 876 869 867 871 871 863 852 850 857 860 861 864 863 863 860 853 856 860 858 865 870 867 866 869 877 881 874 864 855 858 875 883 886 896 897 894 897 895 894 895 894 895 895 894 893 892 891
821 822 822 821 819 817 816 815 813 812 813 815 831 858 871 873 875 877 877 877 879 881 869 857 860 863 862 861 858 860 862 859 858 858 860 868 872 875 879 877 878 880 877 875 873 874 872 858 853 858 855 859 870 866 861 865 861 858 862 862 868 870 867 871 874 873 875 872 864 858 861 868 868 876 897 902 896 897 896 896 897 896 896 896 895 894 892 891
821 822 822 822 821 820 817 815 815 813 815 829 850 868 874 876 879 881 882 882 881 879 870 863 866 868 869 867 863 867 868 860 861 864 863 867 872 878 882 879 877 880 882 880 873 875 879 864 855 862 861 859 867 863 858 865 865 863 866 866 868 869 868 874 878 875 879 881 870 862 867 877 882 888 898 899 895 896 896 897 899 899 898 897 896 895 892 891
821 822 824 825 822 821 819 816 817 815 819 841 861 870 874 877 881 885 886 884 881 875 870 873 875 871 872 873 870 874 875 870 869 870 867 869 873 881 886 883 880 880 883 883 876 877 882 870 858 860 864 861 860 861 865 869 868 866 869 870 872 875 876 881 883 880 882 883 878 870 865 875 895 900 896 894 893 895 897 898 900 900 898 898 897 896 893 891
822 823 826 826 822 823 822 816 818 825 836 857 870 871 877 879 880 887 890 886 881 875 872 877 880 874 872 876 878 880 879 878 877 872 871 876 877 880 888 890 886 884 884 880 879 881 880 876 867 858 860 863 864 869 873 873 873 870 873 880 882 880 880 885 887 884 884 883 886 884 871 876 898 900 892 895 896 896 899 900 899 899 899 898 897 896 893 891
823 825 828 827 824 825 821 820 837 851 859 870 874 873 878 879 878 884 890 889 883 879 878 879 879 878 876 877 880 884 881 879 880 877 876 880 879 879 889 897 895 891 885 877 880 884 880 881 879 868 862 865 870 877 878 876 877 876 880 888 890 887 887 889 890 891 893 888 887 890 881 881 896 897 893 896 896 896 899 898 899 899 897 897 896 894 893 891
825 830 832 828 825 824 822 835 862 871 866 870 875 877 880 880 879 880 884 887 883 880 881 880 881 883 882 880 881 885 883 878 878 879 879 883 885 884 891 900 901 898 890 881 885 889 886 887 884 873 870 872 876 883 886 884 882 883 890 895 893 894 895 894 892 894 897 893 891 893 886 885 896 897 893 893 894 896 897 896 898 898 896 896 894 893 891 890
831 834 832 828 827 825 826 845 866 871 871 878 881 881 883 881 878 878 880 882 880 879 878 878 882 882 882 884 883 882 883 880 879 880 881 885 889 889 894 899 899 897 890 884 887 889 887 889 884 873 873 876 876 882 886 885 882 884 895 903 903 904 903 901 900 900 900 899 901 900 887 884 893 894 891 893 894 895 895 896 897 896 895 894 892 892 890 890
837 836 834 830 825 822 832 849 860 866 874 878 876 878 882 882 880 878 878 880 881 881 877 877 883 881 882 888 885 882 883 878 878 884 884 885 889 892 896 898 895 892 888 886 889 887 884 887 885 881 882 879 876 880 882 881 885 892 900 908 910 907 906 906 906 906 902 899 906 908 891 882 890 894 892 893 895 895 895 895 896 895 894 893 892 891 891 891
837 837 838 836 829 830 846 860 860 862 871 871 871 877 879 880 884 884 881 883 887 887 880 879 885 884 885 887 884 884 885 880 879 885 887 887 889 893 896 897 895 893 891 892 893 889 887 889 888 888 893 895 890 887 885 885 893 901 906 912 912 908 906 902 900 903 902 899 906 908 893 882 886 892 894 895 896 897 896 894 894 894 893 893 892 891 891 892
837 840 844 843 842 846 861 871 866 862 868 868 869 879 879 875 882 889 885 883 887 889 884 883 886 885 884 885 883 882 885 887 885 884 887 888 888 893 897 896 894 894 892 893 895 893 892 894 895 892 892 896 894 889 889 893 898 902 908 911 912 914 913 904 901 906 907 907 905 897 890 887 884 886 894 897 897 897 896 894 894 893 892 892 891 890 891 891
840 849 855 851 849 854 862 871 871 868 870 870 871 880 881 876 879 883 882 883 886 887 885 885 887 885 884 886 886 884 886 890 889 887 894 897 893 894 898 896 894 894 892 892 895 894 887 890 902 902 893 891 892 892 895 899 902 907 911 911 910 912 908 903 904 905 905 910 904 888 888 892 884 885 896 899 897 897 895 894 893 892 892 890 889 889 890 890
845 856 864 858 855 861 863 868 874 874 872 874 879 884 881 877 878 879 879 883 885 885 882 881 885 888 890 891 887 885 887 887 887 892 898 901 899 895 893 894 895 895 893 890 894 896 888 890 906 909 897 893 897 900 901 901 905 912 914 910 910 911 906 903 905 903 903 910 904 890 891 893 886 891 900 899 897 897 894 893 893 891 890 888 887 889 889 890
851 856 865 863 863 872 876 877 878 874 871 875 879 883 882 878 879 884 886 882 880 883 882 879 883 889 893 894 889 888 889 884 884 894 899 900 901 897 891 890 893 897 895 892 898 902 894 893 908 913 901 893 896 901 905 902 904 912 914 912 910 909 906 904 902 901 902 904 899 894 895 892 891 898 901 897 895 895 893 892 892 891 889 887 887 889 890 890
848 850 859 862 867 878 882 882 877 868 871 877 876 881 887 881 878 885 889 884 878 881 885 883 885 891 894 894 890 890 893 889 887 894 899 898 898 898 897 895 895 896 896 897 901 901 894 896 912 917 902 890 895 901 903 901 902 908 913 912 909 906 904 903 901 901 903 901 898 899 898 894 896 899 897 894 894 893 892 891 891 890 888 887 888 890 890 890
845 848 852 853 865 879 879 879 878 868 870 878 877 881 885 881 883 886 886 887 886 883 886 886 887 892 896 895 893 892 894 895 893 894 898 898 896 898 899 900 902 898 897 903 905 901 898 902 913 915 895 886 897 902 900 904 907 908 909 909 909 908 904 902 900 901 903 903 900 901 899 896 897 896 893 893 893 892 892 891 889 888 887 888 891 891 890 891
847 850 850 849 863 880 879 877 877 871 875 883 883 883 882 881 890 890 881 885 891 888 889 890 889 891 892 891 894 895 895 896 897 898 900 900 900 903 902 903 906 902 901 907 911 914 913 904 906 912 896 883 896 904 905 908 899 892 898 905 908 907 902 900 901 900 901 902 901 901 899 898 898 896 893 892 892 891 890 889 888 887 887 890 891 891 891 891